Temperature
15 14 14 13 12 12 11 11 11 11 11 11 11 10 10 10 9 9 9 8 8 8 7 7 7 6 6 5 5 5 4 4 3 2 2 2 1 1 0 -0 -0 -1 -1
15 14 13 13 12 11 11 11 11 11 10 10 10 10 10 9 9 9 9 8 8 7 7 7 6 6 5 5 4 4 4 3 2 2 1 1 1 0 -0 -1 -1 -1 -2
14 14 13 12 12 11 11 11 10 10 10 10 10 10 9 9 9 9 8 8 8 7 7 6 6 5 5 4 4 3 3 2 2 1 1 0 -0 -1 -1 -2 -2 -2 -3
14 13 13 12 12 11 11 10 10 10 10 10 10 9 9 9 9 8 8 8 7 7 6 6 5 5 4 4 3 3 2 2 1 1 -0 -1 -1 -1 -2 -3 -3 -3 -4
13 13 13 12 11 11 11 10 10 10 10 9 9 9 9 8 8 8 8 7 7 6 6 5 5 4 4 3 3 2 2 1 0 -0 -1 -2 -2 -3 -3 -4 -4 -4 -5
13 13 12 12 11 11 10 10 10 9 9 9 9 8 8 8 8 7 7 7 6 6 5 5 4 4 3 3 2 2 1 0 -1 -1 -2 -2 -3 -3 -4 -4 -5 -5 -6
13 12 12 11 11 11 10 10 9 9 9 8 8 8 8 7 7 7 6 6 6 5 5 4 4 3 3 2 1 1 0 -0 -1 -2 -3 -3 -4 -4 -5 -5 -5 -6 -6
13 12 12 11 11 10 10 9 9 9 8 8 8 7 7 7 7 6 6 5 5 4 4 3 3 2 2 1 1 -0 -1 -1 -2 -3 -3 -4 -5 -5 -5 -6 -6 -7 -7
13 12 12 11 11 10 10 9 9 8 8 7 7 7 7 6 6 6 5 5 4 4 3 3 2 1 1 0 -0 -1 -2 -2 -3 -3 -4 -4 -5 -5 -6 -6 -7 -7 -8
13 12 12 11 11 10 9 9 8 8 7 7 7 6 6 6 5 5 5 4 3 3 2 2 1 1 -0 -1 -1 -2 -3 -3 -4 -4 -5 -5 -6 -6 -6 -7 -8 -8 -8
13 12 11 11 10 9 9 8 8 7 7 7 6 6 5 5 5 4 4 3 3 2 2 1 0 -0 -1 -2 -2 -3 -4 -4 -5 -5 -5 -6 -6 -7 -7 -8 -8 -8 -9
12 12 11 10 10 9 8 8 7 7 6 6 6 5 5 4 4 4 3 2 2 1 1 0 -1 -1 -2 -2 -3 -4 -4 -5 -5 -6 -6 -7 -7 -8 -8 -8 -8 -9 -9
12 11 10 10 9 8 8 8 7 6 6 6 5 5 4 4 3 3 2 2 1 1 -0 -1 -1 -2 -3 -3 -4 -4 -5 -6 -6 -7 -7 -8 -8 -8 -8 -9 -9 -9 -9
11 11 10 9 8 8 7 7 7 6 6 5 5 4 4 3 3 2 1 1 0 -0 -1 -2 -2 -3 -3 -4 -4 -5 -6 -6 -7 -7 -8 -8 -9 -9 -9 -9 -10 -10 -10
11 10 9 9 8 7 7 6 6 6 5 5 4 4 3 3 2 2 1 0 -0 -1 -2 -2 -3 -4 -4 -5 -5 -6 -7 -7 -8 -8 -8 -9 -9 -10 -10 -10 -10 -10 -10
11 10 9 8 8 7 7 6 5 5 4 4 4 3 3 2 2 1 0 -0 -1 -2 -2 -3 -4 -5 -5 -6 -6 -7 -7 -8 -8 -9 -9 -9 -10 -10 -10 -10 -10 -10 -11
11 10 9 8 7 7 6 6 5 4 4 3 3 2 2 1 1 0 -1 -1 -2 -3 -3 -4 -5 -5 -6 -6 -7 -7 -8 -8 -9 -9 -9 -10 -10 -10 -11 -11 -11 -11 -11
10 9 9 8 7 7 6 5 5 4 3 3 2 2 1 1 0 -1 -1 -2 -3 -3 -4 -4 -5 -6 -6 -7 -7 -8 -8 -9 -9 -9 -10 -10 -10 -11 -11 -11 -11 -11 -11
9 9 8 7 7 6 5 5 4 3 3 2 1 1 0 -0 -1 -1 -2 -2 -3 -4 -4 -5 -6 -6 -7 -7 -8 -8 -9 -9 -10 -10 -10 -10 -11 -11 -11 -11 -11 -11 -11
9 8 8 7 6 5 5 4 3 3 2 2 1 0 -0 -1 -1 -2 -2 -3 -4 -4 -5 -5 -6 -7 -7 -8 -8 -9 -9 -9 -10 -10 -10 -11 -11 -11 -11 -11 -11 -11 -11
8 7 7 6 5 5 4 4 3 2 2 1 0 -0 -1 -1 -2 -2 -3 -3 -4 -5 -5 -6 -6 -7 -7 -8 -8 -9 -9 -10 -10 -10 -11 -11 -11 -11 -11 -11 -11 -11 -11
7 7 6 6 5 4 3 3 2 2 1 1 -0 -1 -1 -2 -2 -3 -3 -4 -5 -5 -6 -6 -7 -7 -8 -8 -9 -9 -9 -10 -10 -11 -11 -11 -11 -11 -11 -11 -11 -11 -12
7 6 6 5 4 3 3 2 2 1 1 -0 -1 -1 -2 -2 -3 -3 -4 -4 -5 -6 -6 -7 -7 -7 -8 -8 -9 -9 -9 -10 -10 -11 -11 -11 -11 -11 -11 -11 -11 -11 -12
6 6 5 4 4 3 2 2 1 0 0 -1 -1 -2 -2 -3 -3 -4 -4 -5 -5 -6 -6 -7 -7 -8 -8 -8 -9 -9 -9 -10 -10 -10 -11 -11 -11 -11 -11 -11 -11 -11 -11
6 5 5 4 3 2 2 1 1 -0 -1 -1 -2 -2 -3 -3 -4 -4 -5 -5 -6 -6 -7 -7 -8 -8 -8 -9 -9 -9 -9 -10 -10 -11 -11 -11 -11 -11 -11 -11 -11 -11 -11
5 4 4 3 3 2 1 1 0 -1 -1 -2 -2 -3 -3 -4 -4 -5 -5 -6 -6 -7 -7 -7 -8 -8 -8 -9 -9 -9 -9 -10 -10 -10 -11 -11 -11 -11 -11 -11 -11 -12 -11
Wind_Speed
16 16 16 15 15 15 13 14 13 12 12 12 12 12 12 11 11 10 9 9 9 8 7 8 8 6 5 5 5 5 6 7 9 9 8 8 9 10 10 12 13 14 14
14 15 15 14 14 14 13 13 12 12 11 11 11 11 11 10 10 10 10 9 9 9 8 8 7 5 6 5 5 7 7 7 8 11 9 8 10 10 10 11 12 13 14
13 14 14 14 14 14 13 12 11 11 11 10 10 10 10 10 9 9 9 9 8 8 7 7 6 6 7 6 6 6 6 6 7 9 10 8 8 8 10 11 12 11 13
13 13 14 14 13 13 12 11 11 11 10 10 9 9 9 8 8 8 8 7 7 6 6 6 6 6 7 6 5 6 6 6 7 8 9 9 9 9 9 10 10 10 10
13 13 13 12 12 11 11 11 10 10 9 9 9 8 8 7 7 8 7 7 6 5 5 5 5 5 5 5 4 5 5 5 6 7 8 9 9 9 9 9 10 10 11
13 13 12 12 12 11 11 11 10 10 9 9 9 8 8 6 8 10 8 7 6 5 5 4 3 4 5 6 7 7 6 6 6 7 8 9 11 10 9 9 10 10 10
13 13 13 12 12 11 11 11 11 10 10 9 9 8 8 7 9 10 8 6 5 4 4 3 2 2 4 4 5 6 7 8 8 8 9 10 11 10 9 10 10 10 12
14 13 13 13 13 12 12 11 11 10 9 9 8 8 7 7 9 9 9 5 4 3 3 3 2 2 2 2 3 5 6 6 6 7 8 9 9 9 9 9 10 10 11
14 14 14 14 14 13 13 12 11 10 9 8 8 8 7 7 8 9 8 4 3 3 2 1 1 1 1 3 3 4 6 6 5 8 10 10 11 11 10 8 8 8 10
15 14 14 14 14 14 13 12 10 10 9 9 8 7 7 7 8 9 7 4 4 3 2 1 0 1 2 2 3 4 5 6 6 6 7 8 8 8 9 7 6 7 9
14 14 14 14 14 14 12 11 11 10 10 9 9 7 6 6 8 8 7 3 3 3 2 1 0 1 2 3 4 4 6 7 6 6 6 6 6 6 5 5 4 5 8
15 15 14 14 12 11 13 12 11 11 11 10 9 7 5 5 6 7 7 4 3 2 1 1 0 1 2 3 3 5 7 7 4 5 6 6 6 6 6 6 6 7 8
16 16 15 14 12 12 13 13 11 10 8 8 7 7 5 5 5 7 7 5 4 2 2 2 2 1 2 2 3 5 5 4 4 5 6 6 6 6 6 6 6 6 7
18 16 15 14 13 11 9 9 9 9 8 8 7 7 6 5 5 4 4 4 4 3 2 3 2 1 1 3 3 3 3 4 4 5 6 6 6 5 5 5 6 6 6
18 16 15 13 13 11 9 7 7 7 7 8 7 7 7 6 5 6 4 3 3 2 2 1 0 1 1 2 3 3 3 4 4 5 5 6 6 6 6 5 5 6 6
17 15 13 12 11 11 11 9 11 9 11 10 9 8 6 7 10 8 7 6 5 5 2 1 1 1 2 3 3 4 4 4 5 5 5 5 5 6 6 6 6 6 7
18 16 13 12 12 12 11 11 11 10 12 11 11 10 9 10 10 8 8 7 5 4 1 1 1 1 2 3 3 4 4 4 4 5 5 5 5 5 6 6 6 6 7
17 15 14 12 12 11 11 10 10 10 9 7 8 10 10 10 9 8 8 5 3 2 1 1 1 2 2 3 3 4 4 4 4 4 5 5 5 5 6 6 6 7 7
15 13 12 12 11 11 10 10 9 10 9 8 7 7 9 9 8 7 5 3 2 1 1 1 1 2 2 3 3 4 4 4 5 5 4 5 5 5 6 6 6 8 7
13 16 14 12 12 11 10 10 9 9 8 8 7 6 6 5 4 4 3 2 2 1 1 2 2 2 3 3 3 4 4 4 4 4 5 5 5 5 6 7 6 6 6
13 14 16 13 11 10 10 9 9 8 8 7 6 6 7 5 4 3 3 2 2 2 2 2 2 3 3 3 4 4 5 5 4 4 5 5 5 5 5 6 6 6 6
13 13 11 11 11 10 9 9 8 8 8 8 6 6 7 4 3 3 2 2 1 1 2 2 3 3 3 4 4 5 5 5 5 5 5 5 5 5 6 6 6 6 6
13 13 12 11 10 13 11 9 8 8 8 7 7 6 5 4 3 3 2 2 1 2 2 3 3 3 4 4 5 5 5 5 5 5 6 6 5 5 6 6 6 7 6
14 14 13 12 11 10 9 9 8 8 8 7 6 5 4 4 3 2 2 2 2 2 2 3 4 5 6 6 6 6 7 7 7 7 7 7 7 6 6 6 6 7 6
13 13 12 12 11 10 10 9 8 8 7 6 6 5 4 4 3 2 2 2 2 2 3 4 4 5 6 7 8 7 8 10 10 9 8 6 7 7 6 6 6 6 6
13 12 11 10 10 10 9 9 8 8 7 6 5 5 4 4 3 2 2 2 2 2 3 4 5 6 7 8 8 9 10 11 11 11 9 6 6 6 6 6 7 6 6
Wind_Direction
185 187 189 191 192 192 193 195 195 194 190 189 190 188 188 190 190 191 197 196 203 206 204 211 216 214 216 219 222 230 237 243 263 278 279 281 280 280 283 282 284 285 285
179 181 183 184 185 188 190 191 190 189 185 185 184 183 185 186 189 194 198 197 202 206 206 209 213 208 220 224 226 234 241 244 260 277 283 284 282 285 286 287 287 286 286
173 175 176 178 180 184 184 183 183 182 178 179 179 182 183 185 188 196 198 197 200 203 205 206 208 209 223 228 233 242 249 254 259 273 285 289 289 288 290 288 289 289 290
168 171 174 176 178 178 177 176 176 176 175 175 176 178 177 178 182 187 188 188 193 198 200 207 209 213 228 235 239 247 254 260 265 272 281 288 290 293 293 294 296 297 297
166 168 170 169 168 166 166 166 166 167 168 167 166 167 166 167 175 175 176 178 183 187 195 208 213 221 235 240 246 253 257 264 271 275 282 289 293 298 296 298 297 301 300
166 165 162 160 159 160 160 158 158 158 158 157 161 162 162 165 170 174 174 178 182 188 195 206 211 219 233 242 251 258 266 270 275 279 284 288 294 298 299 299 300 302 303
164 162 161 159 157 157 154 155 156 157 154 155 157 158 160 156 160 168 172 173 177 183 188 192 201 225 236 255 253 258 262 266 273 282 286 291 298 304 306 301 299 298 298
163 163 162 160 158 156 156 156 156 155 153 152 153 154 148 145 157 163 163 166 163 165 172 184 203 224 243 266 266 273 277 277 281 284 291 296 302 308 304 298 298 298 296
167 166 165 162 159 157 158 156 153 149 146 144 145 147 145 140 148 152 155 154 153 150 143 154 201 240 283 291 284 285 290 293 291 293 298 301 304 306 310 309 308 305 304
170 166 163 162 160 159 155 150 146 143 139 134 130 136 137 136 141 147 152 149 153 147 143 147 142 308 307 297 292 293 296 301 304 302 298 298 301 303 306 305 303 302 305
159 156 156 157 157 153 148 145 142 137 134 130 127 125 126 126 136 140 143 147 152 154 155 171 167 324 309 301 301 301 308 309 304 302 302 304 307 307 308 307 301 294 297
151 150 151 151 146 146 143 141 141 139 136 134 131 125 121 124 128 138 138 126 133 148 155 167 45 358 317 304 304 320 319 313 308 306 305 307 311 314 313 308 301 288 283
148 147 145 143 143 146 145 143 142 143 142 142 141 139 133 130 130 134 138 131 133 128 116 91 67 22 309 300 320 328 324 319 315 310 309 311 313 312 311 309 306 298 290
147 145 143 142 140 139 138 143 146 149 148 147 147 145 142 142 142 147 148 139 132 118 110 104 91 63 354 337 328 326 326 323 318 310 309 310 314 315 313 317 316 317 312
145 143 142 141 138 135 130 129 138 139 149 150 151 150 151 153 151 147 145 146 148 132 119 99 18 329 324 327 325 323 321 320 316 314 311 313 315 315 317 319 315 313 310
146 146 144 142 139 135 128 110 84 103 108 108 118 128 127 131 139 136 127 123 122 132 135 175 257 299 311 316 316 317 316 317 316 315 313 314 315 316 317 318 316 313 312
149 147 144 144 143 141 138 135 126 106 102 107 116 120 124 131 134 134 130 124 123 133 147 196 267 293 303 305 307 307 307 311 312 308 308 310 312 313 314 316 317 317 316
144 142 143 144 144 143 143 141 140 139 135 122 117 122 126 129 132 134 135 132 136 144 174 234 274 289 295 298 300 301 304 306 305 304 305 307 309 310 312 315 316 317 315
142 143 141 139 138 138 139 138 137 137 136 135 133 129 129 127 125 128 136 148 162 182 212 249 272 284 289 292 295 296 298 299 304 303 302 303 304 305 308 310 310 313 312
139 137 137 137 137 138 140 140 140 141 141 143 147 145 145 144 145 146 149 156 175 201 229 253 268 278 283 286 289 291 293 295 298 296 299 300 299 299 302 303 307 310 310
137 138 134 134 138 140 141 141 142 142 143 143 142 147 156 155 155 159 168 177 196 220 244 261 269 274 276 281 283 285 287 290 293 295 296 298 299 298 299 301 305 304 306
138 141 142 139 138 138 137 137 138 139 141 141 139 143 150 150 155 165 177 193 214 237 253 261 267 270 274 277 278 280 282 285 289 290 292 294 295 295 296 299 303 307 307
137 137 135 134 134 136 134 135 138 140 141 143 144 148 154 157 162 171 184 203 223 244 252 256 263 269 274 272 271 271 274 278 283 286 287 289 290 291 293 295 297 300 305
138 138 136 136 137 139 138 139 139 140 141 144 148 152 156 158 165 176 196 217 239 252 256 259 264 271 275 278 275 271 270 275 280 276 272 275 280 284 287 289 291 296 297
137 137 138 139 141 140 140 140 141 143 145 148 151 153 156 161 170 183 200 221 243 255 264 268 269 271 274 276 277 277 276 278 278 278 272 267 270 271 277 283 286 293 293
136 137 137 138 139 141 143 144 145 147 148 150 153 157 161 168 179 192 207 224 243 258 268 270 271 277 281 281 278 277 280 282 281 281 279 273 271 272 276 278 282 284 289
Height
1438 1443 1448 1453 1457 1462 1467 1471 1475 1479 1482 1486 1489 1492 1495 1497 1500 1502 1504 1505 1506 1506 1507 1507 1507 1507 1506 1506 1505 1504 1502 1500 1496 1494 1492 1490 1486 1483 1480 1477 1474 1470 1467
1434 1439 1444 1448 1453 1457 1462 1466 1471 1474 1478 1481 1485 1488 1490 1493 1495 1497 1499 1500 1501 1501 1502 1502 1502 1502 1501 1501 1500 1499 1497 1495 1492 1488 1486 1484 1481 1478 1474 1471 1468 1464 1460
1430 1435 1440 1444 1448 1453 1458 1462 1466 1470 1474 1477 1480 1483 1486 1488 1491 1492 1494 1495 1496 1497 1497 1497 1497 1497 1496 1496 1495 1494 1492 1490 1487 1484 1481 1478 1475 1472 1469 1465 1462 1458 1454
1427 1431 1436 1440 1445 1450 1454 1458 1462 1466 1470 1473 1476 1479 1482 1484 1486 1488 1489 1490 1491 1492 1492 1493 1492 1492 1492 1491 1490 1488 1487 1484 1482 1479 1476 1473 1470 1467 1463 1459 1455 1453 1449
1424 1428 1433 1438 1442 1447 1451 1455 1459 1463 1466 1469 1473 1475 1478 1480 1482 1484 1485 1486 1487 1487 1488 1488 1488 1487 1487 1486 1485 1483 1481 1479 1476 1474 1471 1468 1465 1462 1459 1454 1450 1447 1443
1421 1426 1430 1435 1439 1444 1448 1452 1456 1459 1463 1466 1469 1471 1474 1476 1478 1480 1481 1482 1483 1483 1483 1483 1483 1482 1482 1481 1480 1478 1476 1474 1471 1469 1466 1463 1460 1457 1453 1450 1446 1442 1438
1419 1423 1428 1432 1436 1441 1445 1449 1453 1456 1460 1463 1466 1468 1470 1472 1474 1476 1477 1478 1478 1479 1479 1479 1479 1478 1477 1476 1474 1472 1470 1469 1467 1465 1461 1458 1455 1452 1449 1445 1441 1438 1434
1416 1420 1425 1429 1433 1438 1442 1446 1450 1453 1457 1460 1463 1465 1467 1469 1471 1472 1473 1474 1475 1475 1475 1475 1475 1473 1472 1471 1469 1467 1465 1463 1461 1459 1456 1453 1450 1447 1444 1441 1437 1433 1429
1413 1417 1421 1426 1430 1435 1439 1443 1447 1451 1454 1457 1460 1463 1465 1466 1468 1469 1470 1471 1471 1471 1471 1471 1470 1469 1468 1466 1464 1462 1460 1458 1456 1453 1451 1448 1445 1442 1439 1436 1432 1428 1425
1409 1414 1419 1423 1428 1432 1437 1441 1445 1448 1452 1455 1458 1460 1462 1463 1464 1466 1466 1467 1468 1468 1468 1467 1466 1465 1464 1462 1460 1458 1455 1453 1451 1448 1446 1443 1440 1437 1434 1432 1428 1425 1422
1407 1412 1416 1421 1426 1430 1434 1438 1442 1446 1449 1452 1455 1457 1459 1460 1461 1463 1463 1464 1464 1464 1464 1463 1462 1461 1459 1457 1456 1454 1451 1449 1446 1444 1441 1438 1436 1433 1430 1427 1425 1422 1419
1404 1409 1414 1418 1423 1428 1432 1436 1440 1443 1447 1449 1452 1454 1456 1457 1459 1459 1460 1461 1461 1461 1460 1459 1458 1457 1455 1454 1452 1450 1448 1445 1442 1440 1437 1435 1432 1429 1426 1423 1421 1418 1415
1400 1405 1411 1416 1421 1425 1430 1433 1437 1441 1444 1446 1449 1451 1453 1455 1456 1457 1457 1457 1457 1457 1457 1456 1455 1453 1452 1450 1448 1446 1444 1441 1439 1436 1434 1431 1429 1426 1423 1420 1417 1414 1412
1396 1402 1408 1413 1418 1423 1428 1432 1435 1438 1441 1444 1446 1448 1450 1452 1453 1453 1454 1454 1454 1454 1453 1452 1451 1450 1448 1447 1445 1442 1440 1438 1435 1433 1431 1428 1426 1423 1420 1417 1414 1412 1409
1393 1399 1405 1411 1416 1420 1425 1429 1433 1436 1439 1442 1444 1446 1447 1449 1450 1451 1451 1451 1451 1451 1450 1449 1448 1447 1445 1444 1442 1439 1437 1435 1433 1430 1428 1425 1423 1420 1418 1415 1412 1410 1407
1389 1396 1402 1407 1413 1418 1422 1427 1431 1435 1437 1440 1442 1444 1445 1447 1447 1447 1448 1448 1448 1448 1447 1446 1445 1444 1442 1441 1439 1437 1434 1432 1430 1427 1425 1423 1420 1418 1415 1413 1411 1408 1406
1386 1392 1399 1405 1410 1415 1419 1423 1427 1431 1435 1437 1440 1441 1443 1444 1444 1444 1445 1445 1445 1445 1444 1443 1442 1441 1439 1438 1436 1434 1431 1429 1427 1425 1423 1420 1418 1416 1414 1411 1409 1407 1404
1385 1391 1397 1402 1408 1413 1417 1421 1425 1428 1431 1434 1437 1439 1440 1441 1442 1442 1442 1442 1442 1441 1441 1440 1439 1437 1436 1434 1432 1431 1428 1426 1424 1422 1420 1418 1416 1414 1412 1410 1407 1405 1402
1383 1389 1395 1401 1406 1411 1415 1420 1423 1426 1429 1432 1434 1436 1437 1438 1439 1439 1440 1440 1439 1439 1438 1437 1435 1434 1433 1431 1429 1427 1426 1424 1422 1420 1418 1416 1414 1412 1410 1408 1406 1403 1401
1382 1388 1394 1399 1404 1409 1413 1417 1421 1424 1427 1429 1431 1433 1434 1435 1436 1437 1437 1437 1436 1436 1435 1433 1432 1431 1429 1428 1426 1424 1423 1421 1419 1417 1415 1413 1412 1410 1408 1406 1404 1402 1399
1380 1386 1392 1398 1402 1407 1411 1415 1419 1422 1424 1427 1429 1430 1432 1433 1433 1434 1434 1434 1433 1433 1432 1430 1429 1428 1426 1425 1423 1421 1420 1418 1416 1415 1413 1411 1409 1408 1406 1404 1402 1400 1398
1378 1384 1390 1396 1400 1405 1409 1413 1417 1420 1422 1424 1426 1428 1429 1430 1431 1431 1431 1431 1430 1429 1429 1427 1426 1425 1423 1422 1420 1418 1417 1415 1414 1412 1410 1409 1407 1406 1404 1402 1400 1398 1396
1377 1383 1388 1394 1399 1403 1407 1411 1414 1417 1420 1422 1424 1425 1426 1427 1428 1428 1428 1428 1427 1426 1425 1424 1423 1422 1420 1418 1417 1415 1414 1412 1411 1409 1408 1407 1405 1404 1402 1400 1398 1396 1394
1376 1381 1386 1392 1396 1401 1405 1409 1412 1415 1417 1419 1421 1422 1423 1424 1425 1425 1425 1425 1424 1423 1422 1421 1420 1418 1417 1415 1413 1412 1410 1409 1407 1406 1405 1404 1403 1401 1400 1398 1396 1394 1392
1375 1380 1385 1390 1394 1399 1403 1406 1409 1412 1414 1416 1418 1419 1420 1421 1422 1422 1422 1422 1421 1420 1419 1418 1416 1415 1413 1412 1410 1408 1407 1405 1404 1403 1402 1401 1400 1399 1397 1396 1394 1392 1391
1373 1378 1383 1388 1392 1396 1400 1403 1406 1409 1411 1413 1415 1416 1417 1418 1419 1419 1419 1418 1418 1417 1416 1414 1413 1412 1410 1408 1407 1405 1403 1402 1401 1400 1399 1398 1397 1396 1395 1393 1392 1390 1388